Weather History for KGBD - November, 2013

Change the Weather History Date:

Friday, November 8, 2013

  Actual Average Record
Temperature  
Mean Temperature 56 °F -  
Max Temperature 71 °F 59 °F 87 °F (2006)
Min Temperature 41 °F 37 °F 18 °F (1955)
Degree Days  
Heating Degree Days 9    
Growing Degree Days 6 (Base 50)    
Moisture  
Dew Point 30 °F    
Average Humidity 45    
Maximum Humidity 70    
Minimum Humidity 19    
Precipitation  
Precipitation 0.00 in - - ()
Sea Level Pressure  
Sea Level Pressure 29.94 in    
Wind  
Wind Speed 17 mph (SSW)    
Max Wind Speed 31 mph    
Max Gust Speed 44 mph    
Visibility 10 miles    
Events      
Averages and records for this station are not official NWS values.
T = Trace of Precipitation, MM = Missing Value Source: NWS Daily Summary

Daily Weather History Graph

Daily Weather History Graph

Search for Another Location

Airport or City:

Trip Planner

Search our weather history database for the weather conditions in past years. The results will help you decide how hot, cold, wet, or windy it might be!

Date:

Astronomy

Nov. 08, 2013 Rise Set
Actual Time 7:09 AM CST 5:28 PM CST
Civil Twilight 6:41 AM CST 5:56 PM CST
Nautical Twilight 6:10 AM CST 6:27 PM CST
Astronomical Twilight 5:39 AM CST 6:58 PM CST
Moon 12:06 PM CST (11/8) 10:50 PM CST (11/8)
Length of Visible Light 11h 14m
Length of Day
10h 18m
Waxing Crescent, 33% of the Moon is Illuminated
Nov 8
Waxing Crescent
Nov 9
First Quarter
Nov 17
Full
Nov 25
Last Quarter
Dec 2
New

Hourly Weather History & Observations

Time (CST) Temp. Windchill Dew Point Humidity Pressure Visibility Wind Dir Wind Speed Gust Speed Precip Events Conditions
12:15 AM 41.0 °F 34.7 °F 32.0 °F 70% 30.21 in 10.0 mi SSE 10.4 mph - N/A   Clear
12:35 AM 42.8 °F 37.0 °F 33.8 °F 70% 30.21 in 10.0 mi SSE 10.4 mph - N/A   Clear
12:55 AM 42.8 °F 35.8 °F 33.8 °F 70% 30.19 in 10.0 mi SSE 13.8 mph - N/A   Clear
1:15 AM 42.8 °F 35.8 °F 33.8 °F 70% 30.18 in 10.0 mi South 13.8 mph - N/A   Clear
1:35 AM 42.8 °F 35.8 °F 33.8 °F 70% 30.17 in 10.0 mi SSE 13.8 mph - N/A   Clear
1:55 AM 42.8 °F 36.2 °F 32.0 °F 66% 30.16 in 10.0 mi SSE 12.7 mph - N/A   Clear
2:15 AM 42.8 °F 35.8 °F 32.0 °F 66% 30.14 in 10.0 mi SSE 13.8 mph - N/A   Clear
2:35 AM 42.8 °F 35.8 °F 30.2 °F 61% 30.12 in 10.0 mi SSE 13.8 mph - N/A   Clear
2:55 AM 42.8 °F 35.8 °F 30.2 °F 61% 30.11 in 10.0 mi South 13.8 mph 19.6 mph N/A   Clear
3:15 AM 44.6 °F 37.8 °F 30.2 °F 57% 30.10 in 10.0 mi South 15.0 mph - N/A   Clear
3:35 AM 44.6 °F 37.8 °F 30.2 °F 57% 30.09 in 10.0 mi South 15.0 mph - N/A   Clear
3:55 AM 44.6 °F 37.8 °F 30.2 °F 57% 30.08 in 10.0 mi South 15.0 mph - N/A   Clear
4:15 AM 44.6 °F 38.1 °F 28.4 °F 53% 30.07 in 10.0 mi South 13.8 mph - N/A   Clear
4:35 AM 44.6 °F 36.9 °F 28.4 °F 53% 30.05 in 10.0 mi South 18.4 mph - N/A   Clear
4:55 AM 44.6 °F 35.9 °F 28.4 °F 53% 30.03 in 10.0 mi South 23.0 mph 28.8 mph N/A   Clear
5:15 AM 44.6 °F 35.9 °F 28.4 °F 53% 30.03 in 10.0 mi South 23.0 mph 27.6 mph N/A   Clear
5:35 AM 44.6 °F 36.1 °F 28.4 °F 53% 30.01 in 10.0 mi South 21.9 mph 28.8 mph N/A   Clear
5:55 AM 44.6 °F 35.9 °F 26.6 °F 49% 30.01 in 10.0 mi South 23.0 mph - N/A   Clear
6:15 AM 44.6 °F 35.9 °F 26.6 °F 49% 29.99 in 10.0 mi South 23.0 mph 27.6 mph N/A   Clear
6:35 AM 44.6 °F 36.1 °F 26.6 °F 49% 29.98 in 10.0 mi South 21.9 mph 29.9 mph N/A   Clear
6:55 AM 44.6 °F 36.6 °F 26.6 °F 49% 29.98 in 10.0 mi South 19.6 mph 27.6 mph N/A   Clear
7:15 AM 44.6 °F 36.4 °F 26.6 °F 49% 29.97 in 10.0 mi SSW 20.7 mph 25.3 mph N/A   Clear
7:35 AM 44.6 °F 37.2 °F 26.6 °F 49% 29.98 in 10.0 mi SSW 17.3 mph 24.2 mph N/A   Clear
7:55 AM 44.6 °F 37.2 °F 26.6 °F 49% 29.97 in 10.0 mi SSW 17.3 mph 24.2 mph N/A   Clear
8:15 AM 46.4 °F 39.0 °F 26.6 °F 46% 29.97 in 10.0 mi SSW 19.6 mph 28.8 mph N/A   Clear
8:35 AM 48.2 °F - 26.6 °F 43% 29.96 in 10.0 mi SSW 19.6 mph 28.8 mph N/A   Clear
8:55 AM 50.0 °F - 28.4 °F 43% 29.96 in 10.0 mi SSW 23.0 mph 28.8 mph N/A   Clear
9:15 AM 50.0 °F - 28.4 °F 43% 29.95 in 10.0 mi SSW 20.7 mph 28.8 mph N/A   Clear
9:35 AM 51.8 °F - 28.4 °F 41% 29.94 in 10.0 mi SSW 25.3 mph 31.1 mph N/A   Clear
9:55 AM 51.8 °F - 28.4 °F 41% 29.93 in 10.0 mi SSW 21.9 mph 32.2 mph N/A   Clear
10:15 AM 53.6 °F - 30.2 °F 41% 29.91 in 10.0 mi South 27.6 mph 34.5 mph N/A   Clear
10:35 AM 55.4 °F - 30.2 °F 38% 29.90 in 10.0 mi SSW 25.3 mph 36.8 mph N/A   Clear
10:55 AM 55.4 °F - 28.4 °F 36% 29.90 in 10.0 mi SSW 29.9 mph 38.0 mph N/A   Clear
11:15 AM 57.2 °F - 30.2 °F 36% 29.90 in 10.0 mi SSW 24.2 mph 38.0 mph N/A   Clear
11:35 AM 60.8 °F - 30.2 °F 31% 29.89 in 10.0 mi SSW 25.3 mph 34.5 mph N/A   Clear
11:55 AM 62.6 °F - 30.2 °F 30% 29.88 in 10.0 mi SSW 25.3 mph 35.7 mph N/A   Clear
12:15 PM 64.4 °F - 30.2 °F 28% 29.86 in 10.0 mi SSW 29.9 mph 38.0 mph N/A   Clear
12:35 PM 66.2 °F - 30.2 °F 26% 29.84 in 10.0 mi SSW 29.9 mph 41.4 mph N/A   Clear
12:55 PM 66.2 °F - 28.4 °F 24% 29.83 in 10.0 mi SSW 31.1 mph 38.0 mph N/A   Clear
1:15 PM 68.0 °F - 28.4 °F 23% 29.82 in 10.0 mi SSW 27.6 mph 36.8 mph N/A   Clear
1:35 PM 69.8 °F - 28.4 °F 21% 29.80 in 10.0 mi SSW 26.5 mph 40.3 mph N/A   Clear
1:55 PM 69.8 °F - 28.4 °F 21% 29.80 in 10.0 mi SSW 29.9 mph 40.3 mph N/A   Clear
2:15 PM 71.6 °F - 26.6 °F 19% 29.80 in 10.0 mi SW 29.9 mph 40.3 mph N/A   Clear
2:35 PM 71.6 °F - 26.6 °F 19% 29.79 in 10.0 mi SW 26.5 mph 39.1 mph N/A   Clear
2:55 PM 71.6 °F - 26.6 °F 19% 29.77 in 10.0 mi SSW 29.9 mph 39.1 mph N/A   Clear
3:15 PM 71.6 °F - 26.6 °F 19% 29.76 in 10.0 mi SSW 27.6 mph 43.7 mph N/A   Clear
3:35 PM 71.6 °F - 28.4 °F 20% 29.78 in 10.0 mi SSW 24.2 mph 33.4 mph N/A   Clear
3:55 PM 71.6 °F - 28.4 °F 20% 29.80 in 10.0 mi SW 17.3 mph 29.9 mph N/A   Clear
4:15 PM 71.6 °F - 30.2 °F 22% 29.80 in 10.0 mi SSW 15.0 mph 25.3 mph N/A   Clear
4:35 PM 71.6 °F - 30.2 °F 22% 29.80 in 10.0 mi SW 19.6 mph 26.5 mph N/A   Clear
4:55 PM 69.8 °F - 28.4 °F 21% 29.80 in 10.0 mi SSW 18.4 mph 24.2 mph N/A   Clear
5:15 PM 66.2 °F - 28.4 °F 24% 29.81 in 10.0 mi SSW 12.7 mph - N/A   Clear
5:35 PM 64.4 °F - 28.4 °F 26% 29.83 in 10.0 mi SSW 13.8 mph - N/A   Clear
5:55 PM 62.6 °F - 28.4 °F 27% 29.84 in 10.0 mi SSW 9.2 mph - N/A   Clear
6:15 PM 60.8 °F - 28.4 °F 29% 29.85 in 10.0 mi SSW 12.7 mph - N/A   Clear
6:35 PM 57.2 °F - 30.2 °F 36% 29.86 in 10.0 mi SSW 13.8 mph - N/A   Clear
6:55 PM 55.4 °F - 30.2 °F 38% 29.87 in 10.0 mi South 11.5 mph - N/A   Clear
7:15 PM 51.8 °F - 30.2 °F 44% 29.87 in 10.0 mi South 10.4 mph - N/A   Clear
7:35 PM 48.2 °F - 32.0 °F 54% 29.88 in 10.0 mi South 8.1 mph - N/A   Clear
7:55 PM 48.2 °F - 32.0 °F 54% 29.89 in 10.0 mi SSW 6.9 mph - N/A   Clear
8:15 PM 46.4 °F 42.4 °F 30.2 °F 53% 29.90 in 10.0 mi South 8.1 mph - N/A   Clear
8:35 PM 44.6 °F 39.2 °F 32.0 °F 61% 29.90 in 10.0 mi South 10.4 mph - N/A   Clear
8:55 PM 44.6 °F 39.2 °F 32.0 °F 61% 29.91 in 10.0 mi South 10.4 mph - N/A   Clear
9:15 PM 46.4 °F 42.4 °F 32.0 °F 57% 29.91 in 10.0 mi South 8.1 mph - N/A   Clear
9:35 PM 44.6 °F 40.2 °F 32.0 °F 61% 29.92 in 10.0 mi SSE 8.1 mph - N/A   Clear
9:55 PM 44.6 °F 39.7 °F 32.0 °F 61% 29.92 in 10.0 mi South 9.2 mph - N/A   Clear
10:15 PM 44.6 °F 38.4 °F 32.0 °F 61% 29.92 in 10.0 mi South 12.7 mph - N/A   Clear
10:35 PM 44.6 °F 39.2 °F 32.0 °F 61% 29.92 in 10.0 mi South 10.4 mph - N/A   Clear
10:55 PM 46.4 °F 41.5 °F 32.0 °F 57% 29.92 in 10.0 mi South 10.4 mph - N/A   Clear
11:15 PM 44.6 °F 40.2 °F 32.0 °F 61% 29.93 in 10.0 mi South 8.1 mph - N/A   Clear
11:35 PM 44.6 °F 40.2 °F 32.0 °F 61% 29.94 in 10.0 mi South 8.1 mph - N/A   Clear
11:55 PM 44.6 °F 40.2 °F 30.2 °F 57% 29.94 in 10.0 mi South 8.1 mph - N/A   Clear